Location: Unspecified
(38.4605°N, 0.0000°E)
Time: 03:09:12
(UTC+00:00)

In-Cosmos 22 Rocket - Visible Passes

Search period start: 04 April 2026 00:00
Search period end: 14 April 2026 00:00
Orbit: 789 x 886 km, 81.2° (Epoch: 29 March)

Date Brightness Start Highest point End Pass type
(mag) Time Alt. Az. Time Alt. Az. Time Alt. Az.
4 Apr 5.9 20:23:14 10° NNE 20:25:19 16° NE 20:25:19 16° NE visible
4 Apr 6.0 22:04:37 10° NNW 22:07:04 26° NNW 22:07:04 26° NNW visible
5 Apr 6.0 20:07:44 10° NNE 20:09:49 14° NE 20:09:49 14° NE visible
5 Apr 5.6 21:48:35 10° NNW 21:51:33 33° NNW 21:51:33 33° NNW visible
6 Apr 6.0 19:52:25 10° NE 19:54:19 12° ENE 19:54:19 12° ENE visible
6 Apr 5.2 21:32:34 10° NNW 21:36:04 41° NNW 21:36:04 41° NNW visible
7 Apr 6.1 19:37:49 10° NE 19:38:33 10° ENE 19:38:51 10° ENE visible
7 Apr 4.7 21:16:35 10° N 21:20:36 52° NNW 21:20:36 52° NNW visible
8 Apr 4.3 21:00:38 10° N 21:05:10 63° NNE 21:05:10 63° NNE visible
9 Apr 4.0 20:44:41 10° N 20:49:45 65° ENE 20:49:45 65° ENE visible
9 Apr 6.7 22:29:44 10° WNW 22:31:31 13° W 22:31:31 13° W visible
10 Apr 4.1 20:28:47 10° N 20:34:02 55° ENE 20:34:23 54° E visible
10 Apr 6.4 22:13:04 10° NW 22:16:05 15° W 22:16:09 15° W visible
11 Apr 4.4 20:12:54 10° N 20:18:02 46° ENE 20:19:03 41° ESE visible
11 Apr 6.2 21:56:39 10° NW 22:00:13 18° W 22:00:49 18° W visible
12 Apr 4.6 19:57:03 10° N 20:02:01 38° ENE 20:03:45 30° ESE visible
12 Apr 6.0 21:40:20 10° NW 21:44:20 22° W 21:45:31 20° WSW visible
13 Apr 4.8 19:41:13 10° N 19:45:59 32° ENE 19:48:30 22° ESE visible
13 Apr 5.8 21:24:05 10° NW 21:28:26 26° W 21:30:16 22° WSW visible
